Regional Weather Roundup
Issued by NWS

Home | Current Version | Previous Version | Text Only | Print | Product List | Glossary On
Versions: 1 2 3 4 5 6 7 8 9 10 11 12 13 14 15 16 17 18 19 20 21 22 23 24 25 26 27 28 29 30 31 32 33 34 35 36 37 38 39 40 41 42 43 44 45 46 47 48 49 50
000
ASUS44 KOUN 291000
RWROK

WEATHER ROUNDUP FOR OKLAHOMA
NATIONAL WEATHER SERVICE NORMAN OK
500 AM CDT FRI APR 29 2016

NOTE: "FAIR" INDICATES FEW OR NO CLOUDS BELOW 12,000 FEET WITH NO
      SIGNIFICANT WEATHER AND/OR OBSTRUCTIONS TO VISIBILITY.

OKZ001>007-009>012-014-015-017-291100-
NORTHWEST OKLAHOMA AND THE PANHANDLE

CITY           SKY/WX    TMP DP  RH WIND       PRES   REMARKS
GAGE           CLOUDY    54  49  83 NE15      29.82R
GUYMON         LGT RAIN  48  46  93 NE17G26   29.85F
$$

OKZ016-021>023-033>039-044-045-291100-
SOUTHWEST OKLAHOMA

CITY           SKY/WX    TMP DP  RH WIND       PRES   REMARKS
LAWTON/REGL    CLOUDY    62  57  83 NE15      29.74F
FREDERICK      CLOUDY    65  58  78 E14       29.69F
CLINTON        CLOUDY    58  50  75 E20G25    29.77F
HOBART         CLOUDY    59  52  77 E22       29.75F
$$

OKZ018>020-024>031-291100-
CENTRAL OKLAHOMA

CITY           SKY/WX    TMP DP  RH WIND       PRES   REMARKS
OKLAHOMA CITY  LGT RAIN  57  54  89 NE15      29.79F
OKC/WILEY POST CLOUDY    59  51  75 E15       29.80F
STILLWATER     CLOUDY    57  51  80 NE15G24   29.82F
GUTHRIE        CLOUDY    57  52  83 E13       29.81F
$$

OKZ008-013-054>072-291100-
NORTHEAST OKLAHOMA

CITY           SKY/WX    TMP DP  RH WIND       PRES   REMARKS
TULSA          CLOUDY    61  52  72 NE12G22   29.84F
TULSA/JONES    LGT RAIN  61  52  72 N9        29.85F
PONCA CITY     CLOUDY    54  47  77 NE17G28   29.86F
BARTLESVILLE   CLOUDY    54  48  80 NE9       29.93F
MUSKOGEE       LGT RAIN  61  55  81 N10       29.84S
$$

OKZ032-040>043-046>053-073>077-291100-
SOUTH CENTRAL/SOUTHEAST OKLAHOMA

CITY           SKY/WX    TMP DP  RH WIND       PRES   REMARKS
MCALESTER      TSTM      61  58  90 N24       29.81R VSB 3/4
$$





USA.gov is the U.S. government's official web portal to all federal, state and local government web resources and services.